KC7MRQ Weather Reports


time (UTC)temp
C
wind
direction
speed
KPH
gust
KPH
rain 1hr
cm
rain 24hr
cm
rain mn
cm
humidity
%
barometer
mb
20260508023001 12 345 8.0 16.1 0.00 0.00 0.00 58 1008.9
20260508021501 12 250 12.9 17.7 0.00 0.00 0.00 56 1008.7
20260508020004 12 356 11.3 24.1 0.00 0.00 0.00 58 1008.5
20260508014601 12 2 17.7 29.0 0.00 0.00 0.00 57 1008.5
20260508013059 12 20 16.1 29.0 0.00 0.00 0.00 56 1008.3
20260508011609 12 2 24.1 35.4 0.00 0.00 0.00 56 1008.3
20260508010057 12 7 24.1 33.8 0.00 0.00 0.00 58 1008.3
20260508004600 13 10 24.1 38.6 0.00 0.00 0.00 57 1008.1
20260508003056 13 14 19.3 35.4 0.00 0.00 0.00 53 1008.0
20260508001556 13 246 22.5 38.6 0.00 0.00 0.00 53 1007.9
20260508000058 14 4 19.3 32.2 0.00 0.00 0.00 52 1007.6
20260507234557 15 9 20.9 32.2 0.00 0.00 0.00 47 1007.6
20260507233053 17 297 24.1 40.2 0.00 0.00 0.00 35 1007.3
20260507231552 17 228 12.9 37.0 0.00 0.00 0.00 35 1007.4
20260507230048 16 214 19.3 33.8 0.00 0.00 0.00 36 1007.4
20260507224549 16 208 19.3 37.0 0.00 0.00 0.00 38 1007.5
20260507223053 16 209 16.1 29.0 0.00 0.00 0.00 40 1007.5
20260507221545 15 221 11.3 25.7 0.00 0.00 0.00 41 1007.5
20260507220045 15 3 9.7 20.9 0.00 0.00 0.00 44 1007.6
20260507214544 16 25 11.3 29.0 0.00 0.00 0.00 35 1007.7
20260507213046 16 188 12.9 19.3 0.00 0.00 0.00 40 1007.8
20260507211539 15 228 19.3 29.0 0.00 0.00 0.00 39 1008.1
20260507210043 15 208 12.9 29.0 0.00 0.00 0.00 40 1008.3
20260507204542 15 210 14.5 32.2 0.00 0.00 0.00 39 1008.3
20260507203043 16 210 14.5 30.6 0.00 0.00 0.00 38 1008.1
20260507201538 15 217 24.1 38.6 0.00 0.00 0.00 38 1008.1
20260507200035 16 345 4.8 17.7 0.00 0.00 0.00 38 1008.0
20260507194534 15 345 4.8 20.9 0.00 0.00 0.00 41 1008.1
20260507193029 14 245 11.3 25.7 0.00 0.00 0.00 41 1008.1
20260507191528 14 239 19.3 29.0 0.00 0.00 0.00 41 1008.3
20260507190026 14 345 16.1 30.6 0.00 0.00 0.00 42 1008.3
20260507184524 13 345 19.3 29.0 0.00 0.00 0.00 42 1008.3
20260507183022 13 239 16.1 29.0 0.00 0.00 0.00 42 1008.6
20260507181521 13 262 17.7 30.6 0.00 0.00 0.00 42 1008.7
20260507180022 13 256 14.5 30.6 0.00 0.00 0.00 42 1009.0
20260507174519 13 240 17.7 33.8 0.00 0.00 0.00 41 1008.9
20260507173030 13 248 22.5 38.6 0.00 0.00 0.00 40 1008.8
20260507171517 13 207 22.5 40.2 0.00 0.00 0.00 40 1008.8
20260507170019 13 237 17.7 35.4 0.00 0.00 0.00 42 1008.9
20260507164515 13 221 17.7 29.0 0.00 0.00 0.00 42 1008.9
20260507163013 13 203 22.5 35.4 0.00 0.00 0.00 43 1008.9
20260507161520 13 231 22.5 33.8 0.00 0.00 0.00 43 1008.9
20260507160012 13 239 19.3 38.6 0.00 0.00 0.00 43 1009.1
20260507154511 12 200 22.5 40.2 0.00 0.00 0.00 44 1009.0
20260507153009 13 219 27.4 43.5 0.00 0.00 0.00 43 1009.1
20260507151507 13 231 29.0 41.8 0.00 0.00 0.00 44 1009.0
20260507150003 12 200 24.1 35.4 0.00 0.00 0.00 47 1009.1
20260507144617 12 212 17.7 30.6 0.00 0.00 0.00 50 1009.5
20260507143057 12 214 8.0 16.1 0.00 0.00 0.00 52 1009.6
20260507141612 11 219 14.5 20.9 0.00 0.00 0.00 54 1009.7
20260507140049 11 217 4.8 9.7 0.00 0.00 0.00 56 1009.7
20260507134549 10 215 11.3 16.1 0.00 0.00 0.00 63 1009.7
20260507133044 10 206 6.4 12.9 0.00 0.00 0.00 63 1009.7
20260507131545 8 345 8.0 9.7 0.00 0.00 0.00 68 1009.7
20260507130044 7 345 11.3 17.7 0.00 0.00 0.00 73 1009.8
20260507124543 6 345 9.7 12.9 0.00 0.00 0.00 74 1009.8
20260507123046 6 345 8.0 12.9 0.00 0.00 0.00 74 1009.8
20260507121541 6 345 6.4 9.7 0.00 0.00 0.00 75 1009.8
20260507120045 6 345 0.0 4.8 0.00 0.00 0.00 74 1009.6
20260507114541 6 345 8.0 14.5 0.00 0.00 0.00 74 1009.4
20260507113036 6 345 9.7 14.5 0.00 0.00 0.00 73 1009.5
20260507111540 7 345 9.7 16.1 0.00 0.00 0.00 71 1009.7
20260507110030 8 328 12.9 17.7 0.00 0.00 0.00 71 1010.0
20260507104528 9 331 12.9 22.5 0.00 0.00 0.00 69 1010.2
20260507103032 10 292 8.0 9.7 0.00 0.00 0.00 60 1010.4
20260507101532 9 345 12.9 16.1 0.00 0.00 0.00 61 1010.4
20260507100034 10 345 12.9 17.7 0.00 0.00 0.00 61 1010.4
20260507094538 9 305 12.9 17.7 0.00 0.00 0.00 61 1010.1
20260507093031 9 345 11.3 17.7 0.00 0.00 0.00 62 1010.1
20260507091528 9 312 6.4 12.9 0.00 0.00 0.00 63 1010.1
20260507090029 8 345 6.4 14.5 0.00 0.00 0.00 65 1010.0
20260507084524 9 325 6.4 9.7 0.00 0.00 0.00 62 1010.0
20260507083019 9 322 8.0 9.7 0.00 0.00 0.00 63 1010.0
20260507081523 9 345 4.8 14.5 0.00 0.00 0.00 62 1010.2
20260507080017 9 312 9.7 16.1 0.00 0.00 0.00 63 1010.2
20260507074516 8 345 11.3 14.5 0.00 0.00 0.00 63 1010.1
20260507073012 9 294 12.9 16.1 0.00 0.00 0.00 62 1010.1
20260507071511 9 304 9.7 12.9 0.00 0.00 0.00 62 1010.2
20260507070013 10 228 8.0 12.9 0.00 0.00 0.00 62 1010.3
20260507064507 10 215 12.9 16.1 0.00 0.00 0.00 61 1010.4
20260507063004 10 205 9.7 12.9 0.00 0.00 0.00 60 1010.5
20260507061502 10 212 8.0 9.7 0.00 0.00 0.00 60 1010.7
20260507060105 10 214 8.0 9.7 0.00 0.00 0.00 58 1010.8
20260507054607 11 345 9.7 14.5 0.00 0.00 0.00 55 1010.8
20260507053100 11 345 11.3 16.1 0.00 0.00 0.00 53 1010.8
20260507051557 11 345 11.3 17.7 0.00 0.00 0.00 51 1010.9
20260507050056 12 345 12.9 19.3 0.00 0.00 0.00 49 1011.0
20260507044601 12 345 12.9 20.9 0.00 0.00 0.00 48 1011.0
20260507043057 12 345 9.7 24.1 0.00 0.00 0.00 48 1011.2
20260507041553 12 345 16.1 25.7 0.00 0.00 0.00 49 1011.0
20260507040052 12 345 27.4 43.5 0.00 0.00 0.00 48 1011.2
20260507034558 13 192 29.0 54.7 0.00 0.00 0.00 47 1011.6
20260507033054 13 81 3.2 6.4 0.00 0.00 0.00 47 1011.8
20260507031550 13 200 9.7 19.3 0.00 0.00 0.00 47 1011.6
20260507030053 13 209 9.7 14.5 0.00 0.00 0.00 47 1011.7
20260507024554 13 206 11.3 20.9 0.00 0.00 0.00 45 1011.9